Regional Weather Roundup
Issued by NWS

Home | Current Version | Previous Version | Graphics & Text | Print | Product List | Glossary Off
Versions: 1 2 3 4 5 6 7 8 9 10 11 12 13 14 15 16 17 18 19 20 21 22 23 24 25 26 27 28 29 30 31 32 33 34 35 36 37 38 39 40 41 42 43 44 45 46 47 48 49 50

000
ASUS43 KMKX 240921
RWRWI

WISCONSIN REGIONAL WEATHER ROUNDUP
NATIONAL WEATHER SERVICE MILWAUKEE/SULLIVAN WI
300 AM CST MON NOV 24 2014

NOTE: "FAIR" INDICATES FEW OR NO CLOUDS BELOW 12,000 FEET WITH NO
SIGNIFICANT WEATHER AND/OR OBSTRUCTIONS TO VISIBILITY.

WIZ001-002-006>008-014>016-023>028-241000-
NORTHWEST WISCONSIN

CITY           SKY/WX    TMP DP  RH WIND       PRES   REMARKS
SUPERIOR ARPT  LGT RAIN  35  33  90 N12       29.25S WCI  27
ASHLAND        MIX PCPN  36  35  96 NW8       29.21S FOG     WCI  30
HAYWARD        LGT SNOW  33  32  96 VRB5      29.19F VSB 1   WCI  29
SIREN          LGT SNOW  33  33  98 NW6       29.26S WCI  28
CUMBERLAND     LGT SNOW  32  32 100 NW15      29.21S WCI  22
RICE LAKE      LGT SNOW  33  33  99 NW7       29.22S WCI  27
CHETEK         LGT SNOW  32  32 100 NW7       29.20S VSB 1   WCI  26
LADYSMITH      LGT RAIN  36  36  99 NW12      29.17S WCI  28
EAU CLAIRE     CLOUDY    36  33  89 NW12      29.18F WCI  28
MENOMONIE      LGT RAIN  35  34  96 W13       29.21S WCI  26
NEW RICHMOND   CLOUDY    32  32 100 NW15      29.26S WCI  22
OSCEOLA        LGT SNOW  33  33 100 NW8       29.29F WCI  26
$$

WIZ003>005-009-010-017-018-241000-
NORTH CENTRAL WISCONSIN

CITY           SKY/WX    TMP DP  RH WIND       PRES   REMARKS
MANITOWISH WTR LGT RAIN  35  35 100 N5        29.11F WCI  31
ARBOR VITAE    LGT RAIN  38  37  97 N9        29.09F WCI  31
WOODRUFF       LGT RAIN  38  37  97 N9        29.09F WCI  31
RHINELANDER    CLOUDY    39  38  96 NW6       29.08F FOG     WCI  35
EAGLE RIVER    FOG       38  38 100 N8        29.07F VSB 1/2 WCI  32
LAND O LAKES   RAIN      39  39 100 N7        29.08F VSB 1   WCI  34
PHILLIPS       DRIZZLE   35  35 100 N8        29.12S WCI  29
TOMAHAWK       DRIZZLE   39  38  97 CALM      29.09F
MEDFORD        DRIZZLE   38  38 100 NW12      29.10S WCI  31
MERRILL        DRIZZLE   40  40 100 CALM      29.07F
$$

WIZ029-030-035-036-043>047-241000-
CENTRAL WISCONSIN

CITY           SKY/WX    TMP DP  RH WIND       PRES   REMARKS
WAUSAU         LGT RAIN  41  41 100 NW6       29.05F FOG
MOSINEE        RAIN      41  41 100 NW6       29.08S
MARSHFIELD     CLOUDY    40  39  97 NW15      29.09S FOG     WCI  32
STEVENS POINT  LGT RAIN  40  40 100 CALM      29.07F
WAUPACA        DRIZZLE   44  43  96 NW3       29.06F
WAUTOMA        CLOUDY    43  43 100 CALM      29.07S
WISC RAPIDS    CLOUDY    43  42  97 W7        29.09F
CAMP DOUGLAS   DRIZZLE   39  39 100 W10G20    29.11S WCI  32
$$

WIZ011>013-019>022-031-037>040-048>050-241000-
NORTHEAST WISCONSIN

CITY           SKY/WX    TMP DP  RH WIND       PRES   REMARKS
ANTIGO         DRZL/FOG  37  37 100 NW5       29.05F VSB 1   WCI  34
SHAWANO        DRIZZLE   42  41  95 CALM      29.05F
OCONTO         CLOUDY    41  41 100 CALM      29.02F
STURGEON BAY   CLOUDY    43  39  87 N6        29.01F VSB 1
GREEN BAY      LGT RAIN  41  40  96 W5        29.03F VSB 1/2
MANITOWOC      LGT RAIN  43  43 100 NW6       29.03F
APPLETON       FOG       41  41 100 NW3       29.05S VSB 1/2
CLINTONVILLE   HVY RAIN  41  41 100 CALM      29.05F
OSHKOSH        FOG       42  41  96 W3        29.04F VSB 1/2
$$

WIZ032>034-041-042-053>061-241000-
SOUTHWEST WISCONSIN

CITY           SKY/WX    TMP DP  RH WIND       PRES   REMARKS
LA CROSSE      LGT RAIN  38  38 100 NW14      29.17S FOG     WCI  30
SPARTA         DRIZZLE   38  37  97 W8        29.15F WCI  32
VIROQUA        CLOUDY    37  37 100 NW15G23   29.13F WCI  28
BOSCOBEL       CLOUDY    41  38  89 W8        29.16R
PRAIRIE DU CHI CLOUDY    38  36  89 NW16      29.17F WCI  30
PLATTEVILLE    CLOUDY    39  38  97 NW18G24   29.13F WCI  30
$$

WIZ056-057-062-063-064-067-068-241000-
SOUTH CENTRAL WISCONSIN

CITY           SKY/WX    TMP DP  RH WIND       PRES   REMARKS
REEDSBURG      CLOUDY    41  41 100 W13G18    29.09S
BARABOO/DELLS  CLOUDY    44  43  97 NW8       29.07F FOG
LONE ROCK      CLOUDY    45  39  79 W13       29.12R
MINERAL POINT  FOG       41  41 100 W15G21    29.10S VSB 3/4
MADISON        CLOUDY    45  44  97 W3        29.06F FOG
MIDDLETON      CLOUDY    46  46 100 W6        29.07F
WATERTOWN      CLOUDY    44  44 100 NW3       29.05F FOG
MONROE         FOG       45  45 100 W14       29.07F VSB 3/4
JANESVILLE     FOG       45  43  93 W3        29.06S VSB 1/4
$$

WIZ051-052-058>065-066-070>072-241000-
SOUTHEAST WISCONSIN

CITY           SKY/WX    TMP DP  RH WIND       PRES   REMARKS
MILWAUKEE      LGT RAIN  46  44  93 W3        29.04F FOG
WAUKESHA       DRIZZLE   43  43 100 W5        29.05F
MILWAUKEE/TIMM DRIZZLE   43  43 100 CALM      29.05F
RACINE         CLOUDY    46  45  96 SW5       29.06S
BURLINGTON     DRZL/FOG  44  44 100 SW7       29.06S VSB 3/4
KENOSHA        LGT RAIN  47  46  97 W9        29.05S FOG
FOND DU LAC    LGT RAIN  43  41  93 W3        29.04F FOG
SHEBOYGAN      LGT RAIN  43  42  97 NW5       29.03F
WEST BEND      DRIZZLE   43  41  93 W5        29.04S
JUNEAU         DRZL/FOG  42  42  99 CALM      29.06S VSB 1/2
$$

LSZ147-162-241000-
LAKE SUPERIOR

STATION/POSITION TIME  TEMP    WIND        PRES    WAVE
                       AIR SEA DIR/SP/G            HT/PER
                 (UTC) (F)     (DEG/KT/KT) (MB)    (FT/S)
DEVILS ISLAND    0900   38     330/ 16/ 17  988.8F
PORT WING        0800   37     310/ 13/ 15  990.5
SAXON HARBOR     0800   38     310/  9/ 10  988.5F
$$

LMZ867-665-643>646-241000-
LAKE MICHIGAN

STATION/POSITION TIME  TEMP    WIND        PRES    WAVE
                       AIR SEA DIR/SP/G            HT/PER
                 (UTC) (F)     (DEG/KT/KT) (MB)    (FT/S)
CHAMBERS ISLAND  0800   41     360/  6/  8  984.8F
N MID LAKE BUOY  0850   44 42   30/  6/  8  982.4F   2/ 6
NORTHPORT PIER   0800   43     310/  3/  4  984.1F
SISTER BAY       0843          360/  5/  6   N/A
KEWAUNEE LAKESHO 0900   43     280/  3/  3  982.2F
SHEBOYGAN LAKESH 0900   44 39  300/  6/  7  983.4F
PORT WASHINGTON  0800   45     300/  3/  6  984.8F
MILWAUKEE LAKESH 0900   45     280/  4/  5   N/A
S MID LAKE BUOY  0850   46 42  220/ 12/ 14  983.7R   1
KENOSHA   LAKESH 0900   47     250/  8/ 11  984.4S
$$

TC  - TEMPERATURE IN CELSIUS
VSB - VISIBILITY IN STATUTE MILES
WCI - WIND CHILL INDEX
HX  - HEAT INDEX



USA.gov is the U.S. government's official web portal to all federal, state and local government web resources and services.